SCP
0 0 0 0 0 0 0 0 0 0 0 0 0 0 0 0 0 0 0 0 0 0 0 0 0 0 0 0 0 0 0 0 0 0 0 0 0 0 0 0 0 0 0 0 0
0 0 0 0 0 0 0 0 0 0 0 0 0 0 0 0 0 0 0 0 0 0 0 0 0 0 0 0 0 0 0 0 0 0 0 0 0 0 0 0 0 0 0 0 0
0 0 0 0 0 0 0 0 0 0 0 0 0 0 0 0 0 0 0 0 0 0 0 0 0 0 0 0 0 0 0 0 0 0 0 0 0 0 0 0 0 0 0 0 0
0 0 0 0 0 0 0 0 0 0 0 0 0 0 0 0 0 0 0 0 0 0 0 0 0 0 0 0 0 0 0 0 0 0 0 0 0 0 0 0 0 0 0 0 0
0 0 0 0 0 0 0 0 0 0 0 0 0 0 0 0 0 0 0 0 0 0 0 0 0 0 0 0 0 0 0 0 0 0 0 0 0 0 0 0 0 0 0 0 0
0 0 0 0 0 0 0 0 0 0 0 0 0 0 0 0 0 0 0 0 0 0 0 0 0 0 0 0 0 0 0 0 0 0 0 0 0 0 0 0 0 0 0 0 0
0 0 0 0 0 0 0 0 0 0 0 0 0 0 0 0 0 0 0 0 0 0 0 0 0 0 0 0 0 0 0 0 0 0 0 0 0 0 0 0 0 0 0 0 0
0 0 0 0 0 0 0 0 0 0 0 0 0 0 0 0 0 0 0 0 0 0 0 0 0 0 0 0 0 0 0 0 0 0 0 0 0 0 0 0 0 0 0 0 0
0 0 0 0 0 0 0 0 0 0 0 0 0 0 0 0 0 0 0 0 0 0 0 0 0 0 0 0 0 0 0 0 0 0 0 0 0 0 0 0 0 0 0 0 0
0 0 0 0 0 0 0 0 0 0 0 0 0 0 0 0 0 0 0 0 0 0 0 0 0 0 0 0 0 0 0 0 0 0 0 0 0 0 0 0 0 0 0 0 0
0 0 0 0 0 0 0 0 0 0 0 0 0 0 0 0 0 0 0 0 0 0 0 0 0 0 0 0 0 0 0 0 0 0 0 0 0 0 0 0 0 0 0 0 0
0 0 0 0 0 0 0 0 0 0 0 0 0 0 0 0 0 0 0 0 0 0 0 0 0 0 0 0 0 0 0 0 0 0 0 0 0 0 0 0 0 0 0 0 0
0 0 0 0 0 0 0 0 0 0 0 0 0 0 0 0 0 0 0 0 0 0 0 0 0 0 0 0 0 0 0 0 0 0 0 0 0 0 0 0 0 0 0 0 0
0 0 0 0 0 0 0 0 0 0 0 0 0 0 0 0 0 0 0 0 0 0 0 0 0 0 0 0 0 0 0 0 0 0 0 0 -0 0 0 0 0 0 0 0 0
0 0 0 0 0 0 0 0 0 0 0 0 0 0 0 0 0 0 0 0 0 0 0 0 0 0 0 0 0 0 0 0 0 0 0 0 0 0 0 0 0 0 0 0 0
0 0 0 0 0 0 0 0 0 0 0 0 0 0 0 0 0 0 0 0 0 0 0 0 0 0 0 0 0 0 0 0 0 0 0 0 0 -0 0 0 -0 0 0 0 0
0 0 0 0 0 0 0 0 0 0 0 0 0 0 0 0 0 0 0 0 0 0 0 0 0 0 0 0 0 0 0 0 0 0 0 0 0 0 0 0 0 0 0 0 0
0 0 0 0 0 0 0 0 0 0 0 0 0 0 0 0 0 0 0 0 0 0 0 0 0 0 0 0 0 0 0 0 0 0 0 0 0 0 0 0 0 0 0 0 0
0 0 0 0 0 0 0 0 0 0 0 0 0 0 0 0 0 0 0 0 0 0 0 0 0 0 0 0 0 0 0 0 0 0 0 0 0 0 0 0 0 0 0 0 0
0 0 0 0 0 0 0 0 0 0 0 0 0 0 0 0 0 0 0 0 0 0 0 0 0 0 0 0 0 0 0 0 0 0 0 0 0 0 0 0 0 0 0 0 0
0 0 0 0 0 0 0 0 0 0 0 0 0 0 0 0 0 0 0 0 0 0 0 0 0 0 0 0 0 0 0 0 0 0 0 0 0 0 0 0 0 0 0 -0 0
0 0 0 0 0 0 0 0 0 -0 0 0 0 0 0 0 0 0 0 0 0 0 0 0 0 0 0 0 0 0 0 0 0 0 0 0 0 0 0 0 0 0 0 0 0
0 0 0 0 0 0 0 0 0 0 0 0 0 0 0 0 0 0 0 0 0 0 0 0 0 0 0 0 0 0 0 0 0 0 0 0 0 0 0 0 0 0 0 0 0
0 0 0 0 0 0 0 0 0 0 0 0 0 0 0 0 0 0 0 0 0 0 0 0 0 0 0 0 0 0 0 0 0 0 0 0 0 0 0 0 0 0 0 0 -0
0 0 0 0 0 0 0 0 0 0 0 0 0 0 0 0 0 0 0 0 0 0 0 0 0 0 0 0 0 0 0 0 0 0 0 0 0 0 0 0 0 0 0 0 0
0 0 0 0 0 0 0 0 0 0 0 0 0 0 0 0 0 0 0 0 0 0 0 0 0 0 0 0 0 0 0 0 0 0 0 0 0 0 0 0 0 0 0 0 0
0 0 0 0 0 0 0 0 0 0 0 0 0 0 0 0 0 0 0 0 0 0 0 0 0 0 0 0 0 0 0 0 0 0 0 0 0 0 0 0 0 0 0 0 0
Wind_Speed_500mb
24 21 19 17 14 12 10 9 9 9 9 10 11 11 12 12 14 13 11 9 11 10 8 8 7 3 2 5 5 7 9 5 11 13 8 16 8 10 11 16 25 22 14 13 40
24 23 21 18 15 14 12 11 10 9 10 10 11 12 13 14 14 14 13 13 14 13 11 9 6 4 2 4 3 8 8 17 11 10 5 12 12 22 12 12 19 21 28 22 42
22 21 21 19 17 15 13 12 11 11 11 11 12 13 13 12 12 8 11 12 14 14 12 10 9 6 4 3 3 5 7 8 6 7 8 10 8 18 16 8 29 40 39 35 47
22 21 20 19 18 16 15 13 13 12 12 13 13 13 13 9 8 6 6 6 10 14 15 13 10 6 6 3 3 3 1 4 3 7 4 5 4 9 23 23 14 32 33 43 51
25 24 22 21 20 18 17 16 15 15 14 14 14 13 11 10 11 12 9 7 10 14 17 11 9 7 8 5 2 3 1 3 7 9 8 7 16 17 25 39 32 22 33 45 52
30 28 26 25 22 21 20 19 19 18 17 17 16 14 12 10 11 19 16 11 12 14 12 8 5 6 8 4 4 1 2 7 9 12 10 7 9 6 18 40 40 35 38 46 54
36 33 31 29 27 25 24 23 23 22 20 19 19 17 19 23 14 19 20 19 17 15 12 9 7 4 9 5 2 2 6 12 12 9 9 8 14 20 45 34 34 43 43 50 55
39 38 36 33 31 29 28 27 26 25 24 22 19 18 16 18 27 23 23 22 20 17 14 11 7 7 5 10 8 5 8 5 4 9 4 13 21 9 10 35 46 46 47 53 58
37 40 39 37 35 33 32 30 28 27 25 23 19 14 16 16 32 32 30 23 20 17 14 12 12 7 8 9 7 11 6 8 16 13 4 7 15 5 7 23 40 47 55 60 62
35 36 36 37 37 34 33 31 29 26 25 20 23 10 27 13 22 33 33 27 19 20 14 11 7 7 6 7 11 12 8 8 10 5 6 9 24 22 25 20 39 45 54 63 71
40 36 33 35 36 35 31 24 18 13 30 21 9 10 8 21 18 27 36 32 21 16 10 6 7 15 29 17 8 10 9 11 9 8 10 17 19 31 28 35 54 69 68 73 79
41 40 35 33 36 36 34 20 13 3 15 32 54 33 25 22 16 28 38 26 16 10 14 7 15 26 10 10 8 6 6 11 12 7 11 18 27 26 34 30 62 76 83 90 92
42 47 46 38 35 38 42 40 12 7 10 19 42 53 47 36 21 42 49 23 9 12 17 16 9 12 17 9 11 10 12 10 14 8 8 11 16 15 15 38 66 85 99 93 89
35 42 47 44 43 49 50 31 27 6 6 12 17 27 46 28 16 29 56 21 8 23 14 13 6 12 9 11 16 12 16 9 8 5 9 5 17 11 15 24 13 70 73 78 79
38 35 43 52 30 46 63 33 26 15 10 9 9 12 31 34 30 26 59 24 16 15 14 16 17 11 10 13 17 13 10 13 5 7 6 2 9 4 3 12 28 45 65 71 67
23 11 24 37 51 35 50 48 41 9 25 8 11 13 15 8 8 14 28 9 8 11 5 8 4 13 16 5 10 16 11 10 7 4 8 18 15 3 11 13 13 20 41 31 32
28 32 22 20 32 53 44 66 13 25 4 14 11 12 4 11 8 12 16 20 19 11 23 4 9 7 9 12 5 6 13 4 7 2 15 3 9 34 13 14 14 20 46 36 27
16 24 34 46 37 30 38 12 22 12 22 9 7 10 16 13 9 10 14 17 15 6 7 17 12 23 15 18 15 18 15 12 14 8 9 2 16 13 16 39 48 48 39 32 33
17 19 26 39 36 38 33 15 5 6 5 16 7 8 9 6 10 10 16 12 17 20 22 13 12 1 3 4 19 12 14 8 7 5 4 10 16 16 15 22 32 40 45 46 39
25 27 31 30 34 44 9 14 8 9 5 9 23 16 28 17 15 13 18 11 13 26 11 12 3 3 4 5 7 10 14 7 3 4 10 10 13 16 11 16 15 14 23 26 21
23 12 8 13 26 15 6 8 14 21 10 5 8 11 11 15 18 13 14 6 11 19 38 11 7 2 6 12 20 7 8 5 10 9 9 5 16 15 18 12 9 12 20 15 14
6 3 7 19 11 10 6 11 11 10 22 11 6 7 10 15 17 13 18 11 32 28 23 15 8 8 15 4 6 2 14 13 9 10 7 3 29 7 13 10 7 22 19 18 8
5 9 11 28 11 13 6 9 12 8 11 13 18 13 17 10 10 22 14 12 31 16 25 18 5 4 4 5 2 10 12 29 9 6 19 10 24 6 3 7 9 17 15 11 8
5 4 13 22 14 7 15 14 11 24 20 6 7 29 19 25 17 5 20 8 38 22 29 21 10 15 17 8 12 14 18 25 32 14 13 43 44 27 7 11 17 9 9 9 5
19 10 8 5 12 12 9 6 25 17 18 25 9 15 16 19 26 23 18 9 6 19 22 16 17 25 35 10 10 11 23 37 39 52 26 58 40 62 39 32 47 52 48 34 29
22 9 10 5 7 6 14 29 19 12 7 6 23 22 25 23 16 9 13 22 24 6 16 8 9 15 21 20 13 8 17 35 53 52 42 50 42 54 19 40 29 49 57 59 57
28 31 12 11 8 9 9 5 10 4 11 27 16 10 15 27 39 49 53 54 18 13 23 18 16 16 28 23 17 19 58 35 28 45 48 43 68 63 15 18 29 52 64 66 63
Wind_Direction_500mb
182 190 193 197 200 213 223 230 229 238 251 263 270 276 281 284 283 274 259 236 213 224 226 222 223 216 143 99 102 126 68 186 207 153 236 172 159 173 192 160 179 200 210 209 189
186 188 194 197 205 213 223 237 247 252 260 268 274 281 287 290 287 268 243 238 232 234 224 207 192 177 106 98 66 88 114 211 192 195 226 198 188 174 166 171 214 220 221 213 193
200 199 199 201 205 217 226 236 247 260 269 274 278 282 288 297 294 234 236 238 229 212 194 181 169 153 96 70 43 127 178 190 217 218 236 203 218 181 161 221 220 221 217 208 197
214 216 215 213 214 218 230 236 244 253 264 272 279 282 289 279 222 194 192 190 191 190 180 169 165 141 97 97 63 91 164 171 207 229 201 198 199 214 208 231 242 238 236 215 205
229 227 230 230 228 231 234 241 247 252 257 266 273 280 283 259 250 195 165 144 151 164 165 167 158 138 145 156 102 104 320 256 259 248 252 258 243 236 248 245 250 240 225 220 214
241 240 238 242 239 240 246 248 251 253 259 263 268 273 270 252 242 214 207 196 181 172 169 167 151 129 112 101 123 359 296 283 266 255 244 221 266 227 248 243 244 241 228 222 222
251 247 246 247 251 249 250 255 257 260 260 262 267 269 258 252 246 223 215 209 206 203 199 187 162 161 139 105 104 34 331 329 249 240 237 207 288 233 252 252 240 238 230 224 227
249 250 249 249 251 256 257 257 260 261 266 266 267 273 256 248 237 222 213 208 202 200 200 192 181 147 135 129 38 65 46 355 292 156 249 157 271 241 263 238 238 233 231 229 229
237 247 250 250 250 252 257 259 261 264 264 266 270 256 265 241 227 215 205 202 199 202 193 182 172 132 130 94 14 8 232 213 316 204 124 171 263 266 251 223 242 242 239 238 239
249 242 247 251 251 250 253 257 263 265 262 263 252 270 238 231 220 213 209 204 195 185 162 175 135 85 45 117 225 203 212 236 235 221 185 226 257 267 253 244 252 255 250 246 244
251 247 243 247 248 248 248 253 264 263 231 214 225 212 274 217 201 201 198 186 169 166 158 134 118 196 212 197 152 145 189 224 238 234 196 229 241 262 258 251 262 260 254 251 248
244 247 244 239 241 238 234 211 197 241 299 252 241 239 244 204 202 192 184 174 169 168 122 65 227 225 117 152 172 161 217 252 283 243 190 270 260 251 257 236 250 257 257 254 252
246 243 239 234 234 231 231 223 213 252 271 257 240 239 227 219 215 200 184 178 152 140 189 177 206 155 154 157 166 216 204 221 224 322 242 319 270 231 268 248 256 258 258 259 258
240 242 232 228 225 228 234 217 218 219 279 251 218 232 211 196 234 209 191 177 182 193 160 239 228 144 175 191 156 237 206 190 232 64 252 20 288 209 234 243 247 259 258 260 258
250 233 222 225 218 215 232 209 183 157 266 223 172 188 180 178 143 189 189 201 170 173 141 234 169 167 181 202 172 225 135 170 161 180 354 321 273 206 176 245 252 255 261 265 267
207 208 211 219 234 253 230 201 172 170 231 213 145 166 141 172 138 119 171 179 159 137 253 230 174 172 194 127 160 147 85 56 53 104 278 193 189 185 187 209 252 250 267 287 284
241 245 246 229 232 235 236 182 198 207 161 205 188 162 148 152 159 161 163 180 176 157 221 126 215 187 162 97 60 135 108 300 323 2 244 0 224 260 284 245 235 257 282 289 282
287 256 245 246 237 264 212 227 217 186 208 76 106 117 186 156 196 159 132 191 247 136 120 178 270 169 191 182 170 198 162 165 219 214 273 29 240 252 230 259 268 273 279 283 279
288 275 252 241 238 227 234 253 217 231 301 141 68 126 218 216 151 138 194 213 205 182 188 164 262 206 136 118 154 196 205 156 80 83 16 224 286 289 260 273 273 284 287 285 272
293 301 276 250 227 220 230 249 258 228 346 301 196 182 184 187 166 182 172 193 204 187 208 206 236 42 131 100 29 162 166 86 4 204 257 277 271 227 263 268 322 326 298 288 269
277 303 247 232 224 233 213 199 229 221 193 243 284 203 194 180 180 195 211 237 206 189 192 154 136 9 114 204 175 153 188 118 131 150 185 303 261 215 211 203 257 295 328 324 277
190 232 227 189 188 170 211 194 194 211 193 238 285 314 229 183 188 200 222 246 195 146 183 192 131 166 202 260 233 222 199 152 157 208 241 162 265 183 210 191 266 280 329 344 287
227 263 238 209 220 217 180 234 212 240 198 197 210 208 218 226 222 205 205 204 170 159 161 167 170 140 285 326 344 206 208 205 104 103 216 160 258 354 212 231 275 284 315 311 266
206 283 246 220 256 245 223 243 233 213 233 221 295 219 226 265 217 260 231 230 191 194 160 133 162 202 234 191 142 195 193 201 200 209 202 231 256 249 240 286 290 281 318 315 283
197 234 236 234 248 250 306 280 239 231 212 199 208 263 254 220 246 217 214 316 210 215 162 162 209 206 229 209 161 202 200 200 206 218 200 250 235 255 241 249 257 274 273 264 264
182 188 215 256 276 86 212 243 246 282 333 239 229 232 234 269 260 248 223 211 227 244 164 180 236 177 242 201 178 210 220 211 214 222 229 249 257 251 204 239 240 245 258 261 264
226 205 220 230 177 203 206 218 270 276 295 251 288 315 265 267 285 275 274 279 276 272 216 181 199 195 246 211 184 232 234 216 220 224 219 232 241 257 246 218 238 260 262 263 267
Wind_Speed_850mb
24 21 19 17 14 12 10 9 9 9 9 10 11 11 12 12 14 13 11 9 11 10 8 8 7 3 2 5 5 7 9 5 11 13 8 16 8 10 11 16 25 22 14 13 40
24 23 21 18 15 14 12 11 10 9 10 10 11 12 13 14 14 14 13 13 14 13 11 9 6 4 2 4 3 8 8 17 11 10 5 12 12 22 12 12 19 21 28 22 42
22 21 21 19 17 15 13 12 11 11 11 11 12 13 13 12 12 8 11 12 14 14 12 10 9 6 4 3 3 5 7 8 6 7 8 10 8 18 16 8 29 40 39 35 47
22 21 20 19 18 16 15 13 13 12 12 13 13 13 13 9 8 6 6 6 10 14 15 13 10 6 6 3 3 3 1 4 3 7 4 5 4 9 23 23 14 32 33 43 51
25 24 22 21 20 18 17 16 15 15 14 14 14 13 11 10 11 12 9 7 10 14 17 11 9 7 8 5 2 3 1 3 7 9 8 7 16 17 25 39 32 22 33 45 52
30 28 26 25 22 21 20 19 19 18 17 17 16 14 12 10 11 19 16 11 12 14 12 8 5 6 8 4 4 1 2 7 9 12 10 7 9 6 18 40 40 35 38 46 54
36 33 31 29 27 25 24 23 23 22 20 19 19 17 19 23 14 19 20 19 17 15 12 9 7 4 9 5 2 2 6 12 12 9 9 8 14 20 45 34 34 43 43 50 55
39 38 36 33 31 29 28 27 26 25 24 22 19 18 16 18 27 23 23 22 20 17 14 11 7 7 5 10 8 5 8 5 4 9 4 13 21 9 10 35 46 46 47 53 58
37 40 39 37 35 33 32 30 28 27 25 23 19 14 16 16 32 32 30 23 20 17 14 12 12 7 8 9 7 11 6 8 16 13 4 7 15 5 7 23 40 47 55 60 62
35 36 36 37 37 34 33 31 29 26 25 20 23 10 27 13 22 33 33 27 19 20 14 11 7 7 6 7 11 12 8 8 10 5 6 9 24 22 25 20 39 45 54 63 71
40 36 33 35 36 35 31 24 18 13 30 21 9 10 8 21 18 27 36 32 21 16 10 6 7 15 29 17 8 10 9 11 9 8 10 17 19 31 28 35 54 69 68 73 79
41 40 35 33 36 36 34 20 13 3 15 32 54 33 25 22 16 28 38 26 16 10 14 7 15 26 10 10 8 6 6 11 12 7 11 18 27 26 34 30 62 76 83 90 92
42 47 46 38 35 38 42 40 12 7 10 19 42 53 47 36 21 42 49 23 9 12 17 16 9 12 17 9 11 10 12 10 14 8 8 11 16 15 15 38 66 85 99 93 89
35 42 47 44 43 49 50 31 27 6 6 12 17 27 46 28 16 29 56 21 8 23 14 13 6 12 9 11 16 12 16 9 8 5 9 5 17 11 15 24 13 70 73 78 79
38 35 43 52 30 46 63 33 26 15 10 9 9 12 31 34 30 26 59 24 16 15 14 16 17 11 10 13 17 13 10 13 5 7 6 2 9 4 3 12 28 45 65 71 67
23 11 24 37 51 35 50 48 41 9 25 8 11 13 15 8 8 14 28 9 8 11 5 8 4 13 16 5 10 16 11 10 7 4 8 18 15 3 11 13 13 20 41 31 32
28 32 22 20 32 53 44 66 13 25 4 14 11 12 4 11 8 12 16 20 19 11 23 4 9 7 9 12 5 6 13 4 7 2 15 3 9 34 13 14 14 20 46 36 27
16 24 34 46 37 30 38 12 22 12 22 9 7 10 16 13 9 10 14 17 15 6 7 17 12 23 15 18 15 18 15 12 14 8 9 2 16 13 16 39 48 48 39 32 33
17 19 26 39 36 38 33 15 5 6 5 16 7 8 9 6 10 10 16 12 17 20 22 13 12 1 3 4 19 12 14 8 7 5 4 10 16 16 15 22 32 40 45 46 39
25 27 31 30 34 44 9 14 8 9 5 9 23 16 28 17 15 13 18 11 13 26 11 12 3 3 4 5 7 10 14 7 3 4 10 10 13 16 11 16 15 14 23 26 21
23 12 8 13 26 15 6 8 14 21 10 5 8 11 11 15 18 13 14 6 11 19 38 11 7 2 6 12 20 7 8 5 10 9 9 5 16 15 18 12 9 12 20 15 14
6 3 7 19 11 10 6 11 11 10 22 11 6 7 10 15 17 13 18 11 32 28 23 15 8 8 15 4 6 2 14 13 9 10 7 3 29 7 13 10 7 22 19 18 8
5 9 11 28 11 13 6 9 12 8 11 13 18 13 17 10 10 22 14 12 31 16 25 18 5 4 4 5 2 10 12 29 9 6 19 10 24 6 3 7 9 17 15 11 8
5 4 13 22 14 7 15 14 11 24 20 6 7 29 19 25 17 5 20 8 38 22 29 21 10 15 17 8 12 14 18 25 32 14 13 43 44 27 7 11 17 9 9 9 5
19 10 8 5 12 12 9 6 25 17 18 25 9 15 16 19 26 23 18 9 6 19 22 16 17 25 35 10 10 11 23 37 39 52 26 58 40 62 39 32 47 52 48 34 29
22 9 10 5 7 6 14 29 19 12 7 6 23 22 25 23 16 9 13 22 24 6 16 8 9 15 21 20 13 8 17 35 53 52 42 50 42 54 19 40 29 49 57 59 57
28 31 12 11 8 9 9 5 10 4 11 27 16 10 15 27 39 49 53 54 18 13 23 18 16 16 28 23 17 19 58 35 28 45 48 43 68 63 15 18 29 52 64 66 63
Wind_Direction_850mb
182 190 193 197 200 213 223 230 229 238 251 263 270 276 281 284 283 274 259 236 213 224 226 222 223 216 143 99 102 126 68 186 207 153 236 172 159 173 192 160 179 200 210 209 189
186 188 194 197 205 213 223 237 247 252 260 268 274 281 287 290 287 268 243 238 232 234 224 207 192 177 106 98 66 88 114 211 192 195 226 198 188 174 166 171 214 220 221 213 193
200 199 199 201 205 217 226 236 247 260 269 274 278 282 288 297 294 234 236 238 229 212 194 181 169 153 96 70 43 127 178 190 217 218 236 203 218 181 161 221 220 221 217 208 197
214 216 215 213 214 218 230 236 244 253 264 272 279 282 289 279 222 194 192 190 191 190 180 169 165 141 97 97 63 91 164 171 207 229 201 198 199 214 208 231 242 238 236 215 205
229 227 230 230 228 231 234 241 247 252 257 266 273 280 283 259 250 195 165 144 151 164 165 167 158 138 145 156 102 104 320 256 259 248 252 258 243 236 248 245 250 240 225 220 214
241 240 238 242 239 240 246 248 251 253 259 263 268 273 270 252 242 214 207 196 181 172 169 167 151 129 112 101 123 359 296 283 266 255 244 221 266 227 248 243 244 241 228 222 222
251 247 246 247 251 249 250 255 257 260 260 262 267 269 258 252 246 223 215 209 206 203 199 187 162 161 139 105 104 34 331 329 249 240 237 207 288 233 252 252 240 238 230 224 227
249 250 249 249 251 256 257 257 260 261 266 266 267 273 256 248 237 222 213 208 202 200 200 192 181 147 135 129 38 65 46 355 292 156 249 157 271 241 263 238 238 233 231 229 229
237 247 250 250 250 252 257 259 261 264 264 266 270 256 265 241 227 215 205 202 199 202 193 182 172 132 130 94 14 8 232 213 316 204 124 171 263 266 251 223 242 242 239 238 239
249 242 247 251 251 250 253 257 263 265 262 263 252 270 238 231 220 213 209 204 195 185 162 175 135 85 45 117 225 203 212 236 235 221 185 226 257 267 253 244 252 255 250 246 244
251 247 243 247 248 248 248 253 264 263 231 214 225 212 274 217 201 201 198 186 169 166 158 134 118 196 212 197 152 145 189 224 238 234 196 229 241 262 258 251 262 260 254 251 248
244 247 244 239 241 238 234 211 197 241 299 252 241 239 244 204 202 192 184 174 169 168 122 65 227 225 117 152 172 161 217 252 283 243 190 270 260 251 257 236 250 257 257 254 252
246 243 239 234 234 231 231 223 213 252 271 257 240 239 227 219 215 200 184 178 152 140 189 177 206 155 154 157 166 216 204 221 224 322 242 319 270 231 268 248 256 258 258 259 258
240 242 232 228 225 228 234 217 218 219 279 251 218 232 211 196 234 209 191 177 182 193 160 239 228 144 175 191 156 237 206 190 232 64 252 20 288 209 234 243 247 259 258 260 258
250 233 222 225 218 215 232 209 183 157 266 223 172 188 180 178 143 189 189 201 170 173 141 234 169 167 181 202 172 225 135 170 161 180 354 321 273 206 176 245 252 255 261 265 267
207 208 211 219 234 253 230 201 172 170 231 213 145 166 141 172 138 119 171 179 159 137 253 230 174 172 194 127 160 147 85 56 53 104 278 193 189 185 187 209 252 250 267 287 284
241 245 246 229 232 235 236 182 198 207 161 205 188 162 148 152 159 161 163 180 176 157 221 126 215 187 162 97 60 135 108 300 323 2 244 0 224 260 284 245 235 257 282 289 282
287 256 245 246 237 264 212 227 217 186 208 76 106 117 186 156 196 159 132 191 247 136 120 178 270 169 191 182 170 198 162 165 219 214 273 29 240 252 230 259 268 273 279 283 279
288 275 252 241 238 227 234 253 217 231 301 141 68 126 218 216 151 138 194 213 205 182 188 164 262 206 136 118 154 196 205 156 80 83 16 224 286 289 260 273 273 284 287 285 272
293 301 276 250 227 220 230 249 258 228 346 301 196 182 184 187 166 182 172 193 204 187 208 206 236 42 131 100 29 162 166 86 4 204 257 277 271 227 263 268 322 326 298 288 269
277 303 247 232 224 233 213 199 229 221 193 243 284 203 194 180 180 195 211 237 206 189 192 154 136 9 114 204 175 153 188 118 131 150 185 303 261 215 211 203 257 295 328 324 277
190 232 227 189 188 170 211 194 194 211 193 238 285 314 229 183 188 200 222 246 195 146 183 192 131 166 202 260 233 222 199 152 157 208 241 162 265 183 210 191 266 280 329 344 287
227 263 238 209 220 217 180 234 212 240 198 197 210 208 218 226 222 205 205 204 170 159 161 167 170 140 285 326 344 206 208 205 104 103 216 160 258 354 212 231 275 284 315 311 266
206 283 246 220 256 245 223 243 233 213 233 221 295 219 226 265 217 260 231 230 191 194 160 133 162 202 234 191 142 195 193 201 200 209 202 231 256 249 240 286 290 281 318 315 283
197 234 236 234 248 250 306 280 239 231 212 199 208 263 254 220 246 217 214 316 210 215 162 162 209 206 229 209 161 202 200 200 206 218 200 250 235 255 241 249 257 274 273 264 264
182 188 215 256 276 86 212 243 246 282 333 239 229 232 234 269 260 248 223 211 227 244 164 180 236 177 242 201 178 210 220 211 214 222 229 249 257 251 204 239 240 245 258 261 264
226 205 220 230 177 203 206 218 270 276 295 251 288 315 265 267 285 275 274 279 276 272 216 181 199 195 246 211 184 232 234 216 220 224 219 232 241 257 246 218 238 260 262 263 267